Location: Bacea
(45.9500°N, 22.6667°E)
Time: 00:23:30
(UTC+00:00)

Lacrosse 4 Rocket - Pass Details

Date: 16 October 2021
Orbit: 537 x 619 km, 68.0° (Epoch: 02 December)

Event Time Altitude Azimuth Distance (km) Brightness Sun altitude
Rises 18:32:15 0° 331° (NNW) 2,794 5.6 -30.1°
Reaches altitude 10° 18:34:28 10° 335° (NNW) 1,906 4.6 -30.5°
Enters shadow 18:35:52 20° 339° (NNW) 1,371 3.7 -30.7°
